Regional Weather Roundup
Issued by NWS

Home | Current Version | Previous Version | Graphics & Text | Print | Product List | Glossary On
Versions: 1 2 3 4 5 6 7 8 9 10 11 12 13 14 15 16 17 18 19 20 21 22 23 24 25 26 27 28 29 30 31 32 33 34 35 36 37 38 39 40 41 42 43 44 45 46 47 48 49 50
000
ASUS43 KMPX 220710
RWRMN
WEATHER ROUNDUP FOR MINNESOTA
NATIONAL WEATHER SERVICE TWIN CITIES/CHANHASSEN MN
200 AM CDT FRI SEP 22 2017


NOTE: "FAIR" INDICATES FEW OR NO CLOUDS BELOW 12,000 FEET WITH NO
SIGNIFICANT WEATHER AND/OR OBSTRUCTIONS TO VISIBILITY. N/A MEANS
CURRENT SKY AND/OR WEATHER CONDITIONS ARE NOT AVAILABLE.

MNZ060>063-068>070-220800-
   Twin Cities Metro

CITY           SKY/WX    TMP DP  RH WIND       PRES   REMARKS
TWIN CITIES    PTCLDY    76  70  82 SE12      29.84S
ST PAUL        CLEAR     74  69  85 SE14      29.84S
CRYSTAL        CLEAR     75  66  73 S13       29.81S
BLAINE         CLEAR     77  70  78 S14       29.83R
LAKEVILLE      PTCLDY    72  70  94 SE5       29.85S
EDEN PRAIRIE   PTCLDY    78  70  76 S10       29.82S
SOUTH ST PAUL  CLEAR     75  67  77 S9        29.84F
LAKE ELMO      FAIR      73  68  83 S10G18    29.86S
$$
MNZ001>005-007-008-013>017-022>024-027-028-220800-
   Northwest Minnesota

CITY           SKY/WX    TMP DP  RH WIND       PRES   REMARKS
BEMIDJI        CLEAR     61  60  98 CALM      29.79S
HALLOCK          N/A     61  54  77 CALM      29.77R
ROSEAU           N/A     61  54  77 CALM      29.78R
WARROAD        PTCLDY    61  55  82 E3        29.79S
THIEF RVR FALL CLEAR     63  59  87 NE5       29.76R
CROOKSTON      CLEAR     63  61  94 NW15      29.74R
FOSSTON        CLEAR     66  61  82 SE6       29.75F
DETROIT LAKES  CLEAR     68  64  88 SE7       29.77F
MOORHEAD       CLEAR     70  66  88 SE6       29.71F
PARK RAPIDS    CLOUDY    68  65  90 CALM      29.77F
MAHNOMEN       FAIR      67  65  93 SE8       29.73F
$$
MNZ006-009>011-018-025>026-220800-
   North Central Minnesota

CITY           SKY/WX    TMP DP  RH WIND       PRES   REMARKS
BAUDETTE       PTCLDY    59  57  93 E5        29.79S
FLAG ISLAND    CLEAR     63  54  72 SE5       29.78R
INTL FALLS     CLOUDY    62  60  93 NW5       29.82R
WASKISH        PTCLDY    66  63  88 CALM      29.78S
BIG FORK       CLEAR     64  61  88 SE3       29.81S
LONGVILLE      PTCLDY    64  63  94 CALM      29.79F
GRAND RAPIDS   CLOUDY    61  59  93 SE7       29.83F
CRANE LAKE     CLOUDY    59  57  94 CALM      29.84R
ORR            CLEAR     61  55  82 SE5       29.80R
COOK           CLEAR     63  59  88 CALM      29.83S
WALKER         FAIR      65  64  96 CALM      29.78S
$$
MNZ012-019>021-037-220800-
   Northeast Minnesota

CITY           SKY/WX    TMP DP  RH WIND       PRES   REMARKS
DULUTH         CLOUDY    58  57  97 SE12      29.88S
ELY            PTCLDY    63  63 100 S5        29.85S
HIBBING        CLEAR     54  53  97 CALM      29.84F
EVELETH        CLEAR     58  54  86 CALM      29.85F
DULUTH HARBOR  MOCLDY    61  57  88 NE10      29.88S
TWO HARBORS    CLEAR     61  55  82 NE3       29.85F
SILVER BAY     CLEAR     59  55  88 CALM      29.86F
GRAND MARAIS     N/A     61  58  90 NE6       29.88F
G MARAIS ARPRT   N/A     59  55  88 E3        29.93F
$$
MNZ029>031-032-039>041-046>048-054>057-064-220800-
   West Central Minnesota

CITY           SKY/WX    TMP DP  RH WIND       PRES   REMARKS
FERGUS FALLS   MOCLDY    73  70  88 SE6       29.72S
WHEATON        TSTM      73  70  88 E6        29.72S
MORRIS         CLEAR     75  72  88 SE14      29.71S
ALEXANDRIA     PTCLDY    72  69  90 SE7       29.77F
ELBOW LAKE     FAIR      72  69  91 SE7       29.73S
WADENA         LGT RAIN  68  68 100 SE8       29.77F
GLENWOOD       CLEAR     73  70  88 SE10      29.77S
APPLETON       CLEAR     73  70  88 SE9       29.71S
BENSON         CLEAR     75  70  83 S9G18     29.75S
ORTONVILLE     CLEAR     72  70  94 NE13      29.69F
MADISON        CLEAR     73  73 100 SE8       29.71S
WILLMAR        FAIR      75  72  88 SE12      29.77F
$$
MNZ033>034-036-042>043-049>051-058-059-220800-
   Central Minnesota

CITY           SKY/WX    TMP DP  RH WIND       PRES   REMARKS
ST CLOUD       CLEAR     75  71  87 S10       29.79S
SAUK CENTRE    FAIR      71  69  93 SE8       29.77F
PAYNESVILLE    PTCLDY    76  71  83 S13       29.79S
AITKIN         TSTM      68  64  88 S15       29.82R
PINE RIVER     CLOUDY    64  61  88 SE7       29.83S THUNDER
BRAINERD       CLOUDY    70  68  93 SE13      29.79S THUNDER
STAPLES        CLOUDY    68  66  94 N3        29.77F
LITTLE FALLS   CLOUDY    70  64  83 SE7       29.78S
LITCHFIELD     CLEAR     79  72  78 SE8       29.80S
BUFFALO        CLEAR     76  68  76 SE8       29.81F
MAPLE LAKE     PTCLDY    77  71  82 S6        29.81S
HUTCHINSON     PTCLDY    75  72  88 SE9       29.81F
$$
MNZ037-044-045-052-053-220800-
   East Central Minnesota

CITY           SKY/WX    TMP DP  RH WIND       PRES   REMARKS
PRINCETON      CLEAR     72  68  88 E6        29.81S
MORA           CLOUDY    68  63  83 CALM      29.86S
CAMBRIDGE      PTCLDY    75  63  64 SE5       29.83R
RUSH CITY      CLOUDY    72  65  78 S8        29.84R
MOOSE LAKE     TSTM      59  57  94 SE5       29.85R
HINCKLEY       PTSUNNY   70  68  94 N3        29.86R
CLOQUET        CLOUDY    57  55  94 SE5       29.87S
MCGREGOR       CLOUDY    63  63 100 SE18      29.84R
$$
MNZ071>073-080-081-089-090-097-098-220800-
   Southwest Minnesota

CITY           SKY/WX    TMP DP  RH WIND       PRES   REMARKS
MONTEVIDEO     CLEAR     72  72 100 S7        29.72F
GRANITE FALLS  CLEAR     75  72  88 SE8       29.74F
CANBY          CLEAR     69  68  97 E5        29.71F FOG
MARSHALL       CLEAR     74  71  91 S10       29.72F
REDWOOD FALLS  CLEAR     74  69  85 SE12G20   29.75F
OLIVIA         CLEAR     73  70  88 SE12      29.75F
PIPESTONE      CLEAR     73  72  94 S9        29.76S
WINDOM         CLEAR     75  70  83 S13G20    29.80S
WORTHINGTON    CLEAR     74  71  91 S14G21    29.80S
JACKSON        CLEAR     73  68  83 S12       29.83R
TRACY          CLEAR     75  73  91 S14       29.75S
SLAYTON        CLEAR     73  69  89 SE9       29.79S
$$
MNZ065>067-074>077-082>085-091>093-220800-
   South Central Minnesota

CITY           SKY/WX    TMP DP  RH WIND       PRES   REMARKS
MANKATO        CLEAR     76  70  82 S12       29.82F
NEW ULM        CLEAR     75  68  78 SE9       29.79S
ST JAMES       CLEAR     75  70  83 SE14G20   29.81S
FAIRMONT       CLEAR     75  70  84 S14       29.82S
GLENCOE        CLEAR     77  73  86 SE9       29.80F
FARIBAULT      PTCLDY    75  70  83 SE10      29.86S
OWATONNA       CLEAR     75  70  83 S12G18    29.86F
WASECA         CLEAR     77  68  73 S14G23    29.86S
ALBERT LEA     CLEAR     77  70  78 S9        29.87S
$$
MNZ078>079-086>088-094>096-220800-
   Southeast Minnesota

CITY           SKY/WX    TMP DP  RH WIND       PRES   REMARKS
ROCHESTER      CLEAR     72  68  87 S12       29.91S
RED WING       CLOUDY    75  64  69 SE9       29.87F
STANTON        CLOUDY    77  68  75 S7        29.85F
DODGE CENTER   MOCLDY    73  66  78 S10G16    29.90S
WINONA         CLEAR     75  68  78 SE3       29.92R
AUSTIN         CLEAR     73  66  78 S7        29.90R
PRESTON        CLEAR     72  67  84 S14       29.93S
$$
ABBREVIATIONS USED IN REMARKS
   TC - TEMPERATURES IN CELSIUS
  WCI - WIND CHILL INDEX
   HX - HEAT INDEX
  VSB - VISIBILITY
$$



USA.gov is the U.S. government's official web portal to all federal, state and local government web resources and services.